Погода в Ольховатке

Украина / Харьковская область     50°10′52″N   37°31′03″E
темп.,
°C
ветер,
м/с
пор.,
м/с
влажн.,
%
обл.,
%
осадки,
мм/ч
давл.,
гПа
погр.,
м
22 января, сб
сб2223:00−7ююз6139499 0.0 1008382
02:00−8ююз5119699 0.1 1008252
05:00−9ююз5119694 0.1 1008207
08:00−8ююз4109688 0.1 1010245
11:00−6ююз5994100 0.1 1011348
14:00−5ююз489496 0.1 1011442
17:00−6ююз499699 0.1 1013241
20:00−8ю379789 0.1 1015120
23 января, вс
вс2323:00−7ю379773 0.1 1016132
02:00−14ююз22100100 0.1 101810
05:00−14ююв22100100 0.1 101916
08:00−12всв2299100 0.1 102134
11:00−7св2394100 0.1 1022135
14:00−6св4894100 0.1 1023338
17:00−8св51294100 0.0 1024275
20:00−9ссв61494100 0.0 1025313
24 января, пн
пн2423:00−7ссв71791100 0.0 1025456
02:00−7св81694100 0.3 1025459
05:00−5св71594100 0.7 1025516
08:00−4св71393100 1.1 1026663
11:00−5всв71292100 0.0 1027558
14:00−5всв6119497 0.3 1027501
17:00−7всв61194100 0.1 1028367
20:00−8св51095100 0.1 1028323
25 января, вт
вт2523:00−7всв4995100 0.2 1027322
02:00−8всв489577 0.4 1026251
05:00−9всв379698 0.2 1025169
08:00−9всв369765 0.3 1026134
11:00−6вюв369592 0.1 1025211
14:00−4юв359596 0.1 1024331
17:00−4ююв3591100 0.1 1024290
20:00−4ю3697100 0.2 1023288
26 января, ср
ср2623:00−5ю2697100 0.1 1022251
02:00−7ю2498100 0.2 102257
05:00−11ю229982 0.1 102120
08:00−11ю359891 0.1 102181
11:00−8ю359593 0.0 1020194
14:00−6ююз3592100 0.1 1019523
17:00−7ююв1197100 0.1 102021
20:00−9ююв229888 0.2 102016